Flight Track Log - Related Links

Times and Time Zones

All times are in EDT time to prevent confusion due to time zone crossing. See the GJS3706 flight status page for this flight to view local times or setup timezone preferences in your user account.

Time Position Orientation Groundspeed Altitude Reporting Facility
EDT Latitude Longitude Course Direction KTS MPH feet Rate Location/Type
Sat 11:44:33 AM 42.7256 -73.8108 275° West 147 169 1,200  Level Boston Center
Sat 11:45:58 AM 42.6975 -73.8864 243° Southwest 224 258 4,100 2,082 Climbing Boston Center
Sat 11:47:00 AM 42.7006 -73.9686 273° West 246 283 6,300 2,361 Climbing Boston Center
Sat 11:48:00 AM 43.0244 -74.2570 276° West  Level FlightAware Approximate
Sat 11:48:00 AM 42.7056 -74.0592 274° West 251 289 8,900  Level Boston Center
Sat 11:49:00 AM 43.0333 -74.3928 270° West  Level FlightAware Approximate
Sat 11:49:00 AM 42.7167 -74.1583 279° West 262 302 11,300  Level Boston Center
Sat 11:50:00 AM 43.0364 -74.5291 275° West  Level FlightAware Approximate
Sat 11:50:00 AM 42.7253 -74.2744 276° West 276 318 12,900  Level Boston Center
Sat 11:51:00 AM 42.7339 -74.3878 276° West 320 368 14,300 1,600 Climbing Boston Center
Sat 11:52:00 AM 42.7439 -74.5322 275° West 348 400 16,100 1,700 Climbing Boston Center
Sat 11:53:00 AM 42.7519 -74.6569 275° West 360 414 17,700 1,800 Climbing Boston Center
Sat 11:54:00 AM 42.7656 -74.8100 277° West 373 429 19,700 1,850 Climbing Boston Center
Sat 11:55:00 AM 42.7747 -74.9547 275° West 379 436 21,400 1,700 Climbing Boston Center
Sat 11:56:00 AM 42.7842 -75.0939 275° West 379 436 23,100 1,650 Climbing Boston Center
Sat 11:57:00 AM 42.7953 -75.2386 276° West 379 436 24,700 1,400 Climbing Boston Center
Sat 11:58:00 AM 42.8022 -75.3806 274° West 379 436 25,900 1,150 Climbing Boston Center
Sat 11:59:00 AM 42.8131 -75.5253 276° West 384 442 27,000 1,050 Climbing Boston Center
Sat 12:00:00 PM 42.8211 -75.6786 274° West 396 456 28,000 1,000 Climbing Boston Center
Sat 12:01:00 PM 42.8314 -75.8294 275° West 402 463 29,000 1,000 Climbing Boston Center
Sat 12:02:00 PM 42.8414 -75.9800 275° West 407 468 30,000 850 Climbing Boston Center
Sat 12:03:00 PM 42.8508 -76.1392 275° West 407 468 30,700 700 Climbing Boston Center
Sat 12:04:00 PM 42.8622 -76.2986 276° West 418 481 31,400 708 Climbing Boston Center
Sat 12:05:41 PM 42.8500 -76.5333 266° West 430 495 32,600 638 Climbing Toronto Center
Sat 12:06:21 PM 42.8794 -76.6672 287° West 440 506 32,900 720 Climbing Cleveland Center
Sat 12:07:21 PM 42.8897 -76.8481 274° West 440 506 33,800 750 Climbing Cleveland Center
Sat 12:08:21 PM 42.8989 -77.0119 274° West 440 506 34,400 600 Climbing Cleveland Center
Sat 12:09:21 PM 42.9083 -77.1814 274° West 440 506 35,000 500 Climbing Cleveland Center
Sat 12:10:21 PM 42.9172 -77.3483 274° West 440 506 35,400 450 Climbing Cleveland Center
Sat 12:11:21 PM 42.9281 -77.5178 275° West 440 506 35,900 500 Climbing Cleveland Center
Sat 12:12:21 PM 42.9325 -77.6850 272° West 440 506 36,400 550 Climbing Cleveland Center
Sat 12:13:21 PM 42.9406 -77.8519 274° West 445 512 37,000 500 Climbing Cleveland Center
Sat 12:14:21 PM 42.9489 -78.0247 274° West 445 512 37,400 450 Climbing Cleveland Center
Sat 12:15:21 PM 42.9544 -78.1889 273° West 445 512 37,900 300 Climbing Cleveland Center
Sat 12:16:21 PM 42.9617 -78.3506 274° West 439 505 38,000 50 Climbing Cleveland Center
Sat 12:17:21 PM 42.9689 -78.5119 274° West 439 505 38,000  Level Cleveland Center
Sat 12:18:21 PM 42.9758 -78.6678 274° West 433 498 38,000  Level Cleveland Center
Sat 12:19:21 PM 42.9803 -78.8239 272° West 420 483 38,000  Level Cleveland Center
Sat 12:20:21 PM 42.9867 -78.9769 273° West 414 476 38,000  Level Cleveland Center
Sat 12:21:21 PM 42.9908 -79.1300 272° West 414 476 38,000  Level Cleveland Center
Sat 12:22:21 PM 43.0072 -79.2772 279° West 403 464 38,000  Level Cleveland Center
Sat 12:23:41 PM 43.1000 -79.4000 316° Northwest 410 472 38,000  Level Toronto Center
Sat 12:24:41 PM 43.1667 -79.5167 308° West 410 472 38,000  Level Toronto Center
Sat 12:25:41 PM 43.2500 -79.6333 314° West 420 483 38,000  Level Toronto Center
Sat 12:26:41 PM 43.3333 -79.7500 315° West 420 483 38,000  Level Toronto Center
Sat 12:27:41 PM 43.4333 -79.8833 316° Northwest 430 495 38,000  Level Toronto Center
Sat 12:28:41 PM 43.5167 -80.0000 315° West 440 506 38,000  Level Toronto Center
Sat 12:29:41 PM 43.6000 -80.1167 315° West 440 506 38,000  Level Toronto Center
Sat 12:30:41 PM 43.6500 -80.2500 297° West 440 506 38,000  Level Toronto Center
Sat 12:31:41 PM 43.6500 -80.4167 270° West 430 495 38,000  Level Toronto Center
Sat 12:32:41 PM 43.6167 -80.5833 255° West 430 495 38,000  Level Toronto Center
Sat 12:33:41 PM 43.5833 -80.7333 253° West 430 495 38,000  Level Toronto Center
Sat 12:34:41 PM 43.5500 -80.9000 255° West 430 495 38,000  Level Toronto Center
Sat 12:36:41 PM 43.4833 -81.2000 253° West 430 495 38,000  Level Toronto Center
Sat 12:37:41 PM 43.3833 -81.3000 216° Southwest 420 483 38,000  Level Toronto Center
Sat 12:38:41 PM 43.2833 -81.3667 206° Southwest 410 472 38,000  Level Toronto Center
Sat 12:39:41 PM 43.1833 -81.4333 206° Southwest 420 483 38,000  Level Toronto Center
Sat 12:40:41 PM 43.1000 -81.5500 226° Southwest 420 483 38,000  Level Toronto Center
Sat 12:41:41 PM 43.0833 -81.7167 262° West 430 495 38,000  Level Toronto Center
Sat 12:42:41 PM 43.0833 -81.9000 270° West 430 495 38,000  Level Toronto Center
Sat 12:43:41 PM 43.0500 -82.0333 251° West 430 495 38,000  Level Toronto Center
Sat 12:44:41 PM 43.0500 -82.2167 270° West 430 495 38,000  Level Toronto Center
Sat 12:45:41 PM 43.0500 -82.3667 270° West 440 506 38,000  Level Toronto Center
Sat 12:46:41 PM 43.0333 -82.5333 262° West 440 506 38,000  Level Toronto Center
Sat 12:47:41 PM 43.0167 -82.7167 263° West 440 506 38,000  Level Toronto Center
Sat 12:48:41 PM 43.0167 -82.8667 270° West 440 506 38,000  Level Toronto Center
Sat 12:49:41 PM 43.0000 -83.0333 262° West 440 506 38,000 -100 Level Toronto Center
Sat 12:50:41 PM 43.0000 -83.1833 270° West 430 495 37,800 -650 Descending Toronto Center
Sat 12:51:41 PM 42.9833 -83.3667 263° West 440 506 36,700 -1,050 Descending Toronto Center
Sat 12:52:41 PM 42.9667 -83.5333 262° West 440 506 35,700 -1,000 Descending Toronto Center
Sat 12:53:41 PM 42.9500 -83.7167 263° West 440 506 34,700 -976 Descending Toronto Center
Sat 12:54:44 PM 42.9531 -83.8767 272° West 442 509 33,700 -976 Descending Cleveland Center
Sat 12:55:44 PM 42.9378 -84.0403 263° West 442 509 32,700 -836 Descending Cleveland Center
Sat 12:56:46 PM 42.9208 -84.2122 262° West 448 516 32,000 -339 Descending Chicago Center
Sat 12:57:48 PM 42.9050 -84.3814 263° West 452 520 32,000  Level Chicago Center
Sat 12:58:50 PM 42.8869 -84.5511 262° West 452 520 32,000  Level Chicago Center
Sat 12:59:52 PM 42.8697 -84.7222 262° West 455 524 32,000  Level Chicago Center
Sat 01:00:54 PM 42.8519 -84.8919 262° West 455 524 32,000  Level Chicago Center
Sat 01:01:56 PM 42.8342 -85.0636 262° West 457 526 32,000 -145 Level Chicago Center
Sat 01:02:58 PM 42.8158 -85.2367 262° West 459 528 31,700 -1,355 Descending Chicago Center
Sat 01:04:00 PM 42.7931 -85.4414 261° West 457 526 29,200 -2,226 Descending Chicago Center
Sat 01:05:02 PM 42.7672 -85.6061 258° West 445 512 27,100 -1,984 Descending Chicago Center
Sat 01:06:04 PM 42.7372 -85.7692 256° West 442 509 25,100 -2,081 Descending Chicago Center
Sat 01:07:06 PM 42.7083 -85.9306 256° West 437 503 22,800 -2,129 Descending Chicago Center
Sat 01:08:08 PM 42.6800 -86.0894 256° West 431 496 20,700 -1,355 Descending Chicago Center
Sat 01:09:10 PM 42.6519 -86.2414 256° West 418 481 20,000 -919 Descending Chicago Center
Sat 01:10:12 PM 42.6247 -86.3825 255° West 390 449 18,800 -1,756 Descending Chicago Center
Sat 01:11:13 PM 42.5969 -86.5203 255° West 380 437 16,400 -2,341 Descending Chicago Center
Sat 01:12:15 PM 42.5675 -86.6825 256° West 370 426 14,000 -2,129 Descending Chicago Center
Sat 01:13:17 PM 42.5394 -86.8117 254° West 363 418 12,000 -1,887 Descending Chicago Center
Sat 01:14:19 PM 42.5056 -86.9347 250° West 354 407 10,100 -968 Descending Chicago Center
Sat 01:15:21 PM 42.4711 -87.0517 248° West 340 391 10,000 -194 Descending Chicago Center
Sat 01:16:23 PM 42.4392 -87.1653 249° West 327 376 9,700 -484 Descending Chicago Center
Sat 01:17:25 PM 42.4136 -87.2633 251° West 283 326 9,000 -387 Descending Chicago Center
Sat 01:18:27 PM 42.3842 -87.3675 249° West 246 283 8,900 -677 Descending Chicago Center
Sat 01:19:29 PM 42.3614 -87.4492 249° West 238 274 7,600 -1,258 Descending Chicago Center
Sat 01:20:31 PM 42.3308 -87.5308 243° Southwest 247 284 6,300 -927 Descending Chicago Center
Sat 01:21:32 PM 42.2700 -87.5294 179° South 240 276 5,700 -634 Descending Chicago Center
Sat 01:22:34 PM 42.2047 -87.5186 173° South 237 273 5,000 -339 Descending Chicago Center
Sat 01:23:36 PM 42.1431 -87.5042 170° South 229 264 5,000 -48 Level Chicago Center
Sat 01:24:38 PM 42.1086 -87.4506 131° Southeast 197 227 4,900 -484 Descending Chicago Center
Sat 01:25:40 PM 42.0794 -87.4000 128° Southeast 207 238 4,000 -435 Descending Chicago Center
Sat 01:26:42 PM 42.0244 -87.4014 181° South 201 231 4,000  Level Chicago Center
Sat 01:27:44 PM 41.9839 -87.4581 226° Southwest 207 238 4,000  Level Chicago Center
Sat 01:28:45 PM 41.9792 -87.5344 265° West 226 260 4,000  Level Chicago Center
Sat 01:29:47 PM 41.9867 -87.6094 278° West 216 249 4,000  Level Chicago Center

Login

Don't have an account? Register now (free) for customized features, flight alerts, and more!